Tracking 35274 objects as of 10-Sep-2026
HD Live streaming from Space Station
objects crossing your sky now

SL-6 R/B(1)


SL-6 R/B(1) is no longer on orbit


NORAD ID: 9881
Int'l Code: 1977-021B
Launch date: March 24, 1977
Source: Commonwealth of Independent States (former USSR) (CIS)
Launch site: PLESETSK MISSILE AND SPACE COMPLEX (PKMTR)
Decay date: 1977-04-19

Note: This is a ROCKET BODY
Your satellite tracking list
Your tracking list is empty




NASA's NSSDC Master Catalog

Two Line Element Set (TLE):
1 09881U 77021  B 77109.18807631  .05031868 +00000-0 +00000-0 0  9992
2 09881 062.8251 208.9786 0009180 133.9619 227.8277 16.37070465004123
Source of the keplerian elements: AFSPC